[[{"header":{"parameterUnit":"m.s-1","parameterCategory":1,"la1":30.2992,"la2":30.254,"lo1":-89.0895,"lo2":-89.0443,"dy":0.0025,"dx":0.0025,"nx":19,"ny":19,"refTime":"2026-04-01T21:00:00:Z","depth":0,"parameterNumber":2,"parameterNumberName":"U-component_of_WINDS"},"data":[0,0,0,-4.6299,-4.63,-4.6364,-4.6364,-4.6458,-4.6459,0,0,0,0,0,0,0,0,0,0,0,-4.6289,-4.629,-4.6298,-4.63,-4.6364,-4.6364,-4.6458,-4.6459,0,0,0,0,0,0,0,0,0,0,0,-4.6288,-4.6289,-4.6291,-4.6301,-4.6364,-4.6364,-4.6458,-4.6405,0,0,0,0,0,0,0,0,0,0,-4.6341,-4.634,-4.6289,-4.6291,-4.6301,-4.6364,-4.6364,-4.6402,-4.6408,-4.6435,0,-4.6463,0,-4.6463,-4.6466,-4.6467,0,0,0,-4.6293,-4.6335,-4.6345,-4.6291,-4.6302,-4.6364,-4.6333,-4.6405,-4.6412,-4.6443,-4.6464,-4.6467,-4.6464,-4.6467,-4.6468,-4.665,-4.6652,0,0,-4.629,-4.6304,-4.634,-4.635,-4.6342,-4.6331,-4.6335,-4.6409,-4.6432,-4.6464,-4.6469,-4.6466,-4.6468,-4.6469,-4.6649,-4.6651,0,0,0,-4.6285,-4.6302,-4.6309,-4.6346,-4.6357,-4.6333,-4.6338,-4.6428,-4.643,-4.647,-4.6467,-4.6468,-4.647,-4.6648,-4.665,-4.6722,0,0,0,-4.6282,-4.6299,-4.6308,-4.6318,-4.6356,-4.6394,-4.6356,-4.6425,-4.6433,-4.6466,-4.6468,-4.6471,-4.6647,-4.6649,-4.6717,-4.6753,0,0,0,-4.6281,-4.6299,-4.6311,-4.6318,-4.6346,-4.6392,-4.6397,-4.6426,-4.6431,-4.6467,-4.6471,-4.6646,-4.6649,-4.6713,-4.6746,-4.6805,0,0,0,-4.6284,-4.6373,-4.6313,-4.6411,-4.6346,-4.6437,-4.6397,-4.6464,-4.6503,-4.6469,-4.6647,-4.665,-4.6712,-4.6742,-4.6801,-4.6857,-4.6882,0,0,-4.6405,-4.6388,-4.6445,-4.6393,-4.6499,-4.6426,-4.6543,-4.6564,-4.6554,-4.6619,-4.6623,-4.6719,-4.6746,-4.6804,-4.702,-4.7041,0,0,0,-4.6488,-4.6529,-4.6554,-4.6593,-4.6614,-4.6633,-4.6636,-4.6644,-4.6699,-4.6591,-4.6757,-4.6772,-4.6806,-4.6832,-4.6849,-4.6877,-4.6663,-4.6662,-4.6662,-4.6677,-4.6661,-4.6755,-4.6747,-4.6785,-4.6789,-4.6818,-4.683,-4.68,-4.684,-4.6859,-4.6992,-4.7023,-4.7036,-4.7065,-4.6888,-4.6889,-4.6889,-4.6889,-4.6851,-4.6906,-4.6869,-4.6945,-4.6928,-4.6992,-4.7,-4.6977,-4.7034,-4.6976,-4.7005,-4.6942,-4.7058,-4.7083,-4.6894,-4.6893,-4.6893,-4.6892,-4.6892,-4.6972,-4.6995,-4.7006,-4.7062,-4.7107,-4.7096,-4.7153,-4.7135,-4.7118,-4.7147,-4.7164,-4.7163,-4.7159,-4.7157,-4.7158,-4.7158,-4.7159,-4.7159,-4.7159,-4.7092,-4.7101,-4.7152,-4.7183,-4.7207,-4.7236,-4.7242,-4.7264,-4.7284,-4.7266,-4.7267,-4.7234,-4.7074,-4.7033,-4.7166,-4.7165,-4.7164,-4.7163,-4.7163,-4.7271,-4.7228,-4.7307,-4.7331,-4.7366,-4.7413,-4.7391,-4.7438,-4.7454,-4.7483,-4.7445,-4.733,-4.7311,-4.7298,-4.7264,-4.7449,-4.7449,-4.7449,-4.7449,-4.7371,-4.7362,-4.7438,-4.7478,-4.7515,-4.7504,-4.7593,-4.76,-4.7599,-4.7608,-4.7579,-4.7534,-4.7521,-4.7509,-4.7491,-4.7459,-4.769,-4.769,-4.769,-4.748,-4.7474,-4.7553,-4.7554,-4.7581,-4.7605,-4.7688,-4.7735,-4.7726,-4.7699,-4.7615,-4.7604,-4.753,-4.7507,-4.7476,-4.7448,-4.7389,0,0]},{"header":{"parameterUnit":"m.s-1","parameterCategory":1,"la1":30.2992,"la2":30.254,"lo1":-89.0895,"lo2":-89.0443,"dy":0.0025,"dx":0.0025,"nx":19,"ny":19,"refTime":"2026-04-01T21:00:00:Z","depth":0,"parameterNumber":3,"parameterNumberName":"V-component_of_WINDS"},"data":[0,0,0,3.1455,3.1455,3.147,3.147,3.1484,3.1484,0,0,0,0,0,0,0,0,0,0,0,3.1449,3.1449,3.1455,3.1455,3.147,3.147,3.1484,3.1484,0,0,0,0,0,0,0,0,0,0,0,3.1449,3.1449,3.1449,3.1455,3.147,3.147,3.1484,3.1474,0,0,0,0,0,0,0,0,0,0,3.1461,3.1453,3.1449,3.1449,3.1456,3.147,3.147,3.1474,3.1475,3.1476,0,3.1477,0,3.1481,3.1485,3.1485,0,0,0,3.1456,3.1452,3.1459,3.1449,3.1456,3.147,3.1464,3.1474,3.1475,3.1477,3.1477,3.1478,3.1481,3.1485,3.1485,3.1492,3.1492,0,0,3.1455,3.145,3.1458,3.1459,3.1458,3.1463,3.1464,3.1475,3.1474,3.1477,3.1478,3.1481,3.1485,3.1485,3.1492,3.1492,0,0,0,3.1453,3.1449,3.1455,3.1459,3.1462,3.1463,3.1464,3.1474,3.1476,3.1478,3.1481,3.1485,3.1485,3.1492,3.1492,3.1489,0,0,0,3.1452,3.1448,3.1455,3.1451,3.1461,3.1468,3.1463,3.1475,3.1477,3.1481,3.1485,3.1485,3.1492,3.1492,3.1489,3.1488,0,0,0,3.1448,3.1447,3.1449,3.1451,3.1457,3.1468,3.1471,3.1476,3.1479,3.1485,3.1485,3.1492,3.1492,3.1489,3.1488,3.149,0,0,0,3.1442,3.1442,3.1449,3.145,3.1457,3.1466,3.1471,3.1477,3.1482,3.1485,3.1492,3.1492,3.1489,3.1488,3.149,3.1492,3.1491,0,0,3.1439,3.1442,3.1444,3.145,3.1457,3.1464,3.147,3.1478,3.1482,3.1489,3.1489,3.1489,3.1488,3.149,3.1492,3.1491,0,0,0,3.1441,3.1442,3.1445,3.1451,3.1459,3.1466,3.1475,3.1478,3.1485,3.1485,3.149,3.1489,3.1491,3.1492,3.1492,3.1494,3.1492,3.1492,3.1492,3.1427,3.1436,3.144,3.1452,3.1457,3.1468,3.1474,3.148,3.1484,3.1486,3.1487,3.1488,3.1488,3.1488,3.1491,3.1488,3.1488,3.1488,3.1488,3.1424,3.1428,3.1439,3.1447,3.1456,3.1462,3.1474,3.1477,3.1484,3.1486,3.1487,3.1489,3.1488,3.1491,3.1488,3.1488,3.1488,3.1488,3.1488,3.1417,3.1421,3.1427,3.144,3.1448,3.1459,3.1467,3.1475,3.1481,3.1483,3.1487,3.1487,3.1489,3.1485,3.1485,3.1485,3.1485,3.1485,3.1485,3.1406,3.1415,3.1421,3.1434,3.1441,3.145,3.1464,3.1471,3.148,3.1484,3.1484,3.149,3.1487,3.1486,3.1485,3.1485,3.1485,3.1485,3.1485,3.1401,3.1405,3.1415,3.1423,3.144,3.1449,3.146,3.1473,3.148,3.1484,3.149,3.1486,3.1488,3.1489,3.1488,3.1487,3.1487,3.1487,3.1487,3.1396,3.1399,3.1414,3.1426,3.1438,3.145,3.1463,3.1475,3.1486,3.1491,3.1493,3.1493,3.1493,3.1495,3.1495,3.1495,3.1496,3.1496,3.1496,3.1394,3.1399,3.1409,3.1424,3.1439,3.1451,3.1464,3.1477,3.1491,3.1496,3.1496,3.1495,3.1496,3.1496,3.1499,3.1499,3.1499,0,0]}]]